Flag for U.S.A. Weather past 2 weeks in Owensboro, Kentucky, U.S.A.

Now
86 °F

Partly sunny.


Feels Like: 97 °F
Forecast: 73 / 92 °F
Wind: 7 mph from Southwest

Location: Owensboro / Daviess

Current Time: Aug 21, 2014 at 11:33:26 AM

Latest Report: Aug 21, 2014 at 10:56 AM


Visibility: 10 mi

Pressure: 30.08 "Hg

Humidity: 75%

Dew point: 77 °F

Location of OwensboroLocation

Historic Weather in Owensboro — Graph

°F

Owensboro temperature yesterday

Maximum temperature yesterday: 88 °F (at 1:56 PM)
Minimum temperature yesterday: 71 °F (at 4:56 AM)
Average temperature yesterday: 79 °F

Past Weeks' High & Low Weather Summary

 TemperatureHumidityPressure
High90 °F (Aug 19, 3:56 PM)100% (Aug 8, 4:56 AM)30.10 "Hg (Aug 8, 4:56 AM)
Low56 °F (Aug 14, 5:56 AM)42% (Aug 13, 1:56 PM)29.79 "Hg (Aug 19, 5:56 PM)
Average75 °F80%29.95 "Hg
* Reported Aug 6 9:56 AM — Aug 21 9:56 AM, Owensboro, Weather by CustomWeather, © 2014

Note: Actual official high and low records may vary slightly from our data, if they occured in-between our weather recording intervals... More about our weather records

Advertising

Owensboro weather history for previous 24 hours

 ConditionsComfort  
Time TempWeatherWind HumidityBarometerVisibility
9:56 AM
Aug 21
83 °FPartly sunny.9 mph65%30.08 "Hg10 mi
8:56 AM80 °FPartly sunny.8 mph67%30.06 "Hg10 mi
7:56 AM74 °FScattered clouds.8 mph76%30.04 "Hg7 mi
6:56 AM71 °FPassing clouds.7 mph84%30.03 "Hg7 mi
5:56 AM71 °FPassing clouds.7 mph93%30.01 "Hg7 mi
4:56 AM72 °FLight rain. Clear.8 mph84%30.02 "Hg10 mi
3:56 AM72 °FLight rain. Clear.5 mph93%30.03 "Hg9 mi
2:56 AM73 °FPassing clouds.No wind87%30.05 "Hg10 mi
1:56 AM72 °FClear.6 mph84%30.02 "Hg10 mi
12:56 AM73 °FClear.6 mph93%30.03 "Hg10 mi
11:56 PM
Aug 20
73 °FClear.6 mph93%30.02 "Hg10 mi
10:56 PM73 °FClear.5 mph79%30.03 "Hg10 mi
9:56 PM74 °FClear.7 mph76%30.03 "Hg10 mi
8:56 PM75 °FClear.6 mph77%30.02 "Hg10 mi
7:56 PM80 °FSunny.12 mph82%29.99 "Hg10 mi
6:56 PM83 °FSunny.6 mph59%29.96 "Hg10 mi
5:56 PM85 °FSunny.No wind55%29.95 "Hg10 mi
4:56 PM86 °FPassing clouds.7 mph48%29.96 "Hg10 mi
3:56 PM84 °FBroken clouds.12 mph65%29.96 "Hg10 mi
2:56 PM87 °FBroken clouds.14 mph65%29.94 "Hg10 mi
1:56 PM88 °FPartly sunny.8 mph72%29.99 "Hg10 mi
12:56 PM87 °FScattered clouds.5 mph70%29.96 "Hg10 mi
11:56 AM86 °FPartly sunny.7 mph75%29.97 "Hg10 mi
Weather by CustomWeather, © 2014

See weather overviewHow to use our weather pages